DW7857 Weather Reports


Display with metric or nautical units.
time (UTC)temp
F
wind
direction
speed
MPH
gust
MPH
rain 1hr
in
rain 24hr
in
rain mn
in
humidity
%
barometer
mb
20260901103603 69 103 5.0 7.0 0.00 0.00 0.00 56 1016.4
20260901102703 69 215 4.0 7.0 0.00 0.00 0.00 57 1016.7
20260901101803 70 223 4.0 9.0 0.00 0.00 0.00 56 1016.6
20260901100903 71 145 4.0 10.0 0.00 0.00 0.00 60 1016.6
20260901100003 69 285 3.0 4.0 0.00 0.00 0.00 61 1016.7
20260901095403 69 304 4.0 7.0 0.00 0.00 0.00 62 1016.7
20260901094503 67 204 5.0 8.0 0.00 0.00 0.00 63 1016.8
20260901093603 67 173 4.0 7.0 0.00 0.00 0.00 66 1017.1
20260901092703 66 158 4.0 4.0 0.00 0.00 0.00 68 1016.7
20260901091803 64 163 5.0 8.0 0.00 0.00 0.00 71 1016.9
20260901090903 63 174 5.0 6.0 0.00 0.00 0.00 75 1016.8
20260901090003 62 145 3.0 5.0 0.00 0.00 0.00 79 1017.0
20260901085403 62 96 3.0 4.0 0.00 0.00 0.00 80 1017.0
20260901084503 61 95 2.0 4.0 0.00 0.00 0.00 81 1016.8
20260901083603 60 96 3.0 3.0 0.00 0.00 0.00 81 1016.9
20260901082703 60 105 2.0 3.0 0.00 0.00 0.00 81 1017.0
20260901082017 60 128 2.0 4.0 0.00 0.00 0.00 82 1016.8
20260901080903 59 109 1.0 2.0 0.00 0.00 0.00 84 1016.9
20260901080003 58 188 3.0 4.0 0.00 0.00 0.00 83 1016.4
20260901075403 58 178 3.0 5.0 0.00 0.00 0.00 84 1016.8
20260901074503 57 175 1.0 2.0 0.00 0.00 0.00 85 1016.4
20260901073603 57 118 2.0 3.0 0.00 0.00 0.00 86 1016.6
20260901072703 56 94 2.0 3.0 0.00 0.00 0.00 87 1016.7
20260901071803 56 125 2.0 3.0 0.00 0.00 0.00 88 1016.5
20260901070903 56 128 2.0 3.0 0.00 0.00 0.00 89 1016.4
20260901070003 55 106 2.0 3.0 0.00 0.00 0.00 90 1016.4
20260901065403 55 89 2.0 3.0 0.00 0.00 0.00 90 1016.3
20260901064503 54 143 2.0 3.0 0.00 0.00 0.00 93 1016.4
20260901063818 54 166 3.0 4.0 0.00 0.00 0.00 94 1016.5
20260901062703 54 168 3.0 4.0 0.00 0.00 0.00 95 1016.3
20260901062017 54 169 2.0 4.0 0.00 0.00 0.00 95 1016.1
20260901061118 53 160 0.0 1.0 0.00 0.00 0.00 95 1016.4
20260901060004 52 360 1.0 3.0 0.00 0.00 0.00 94 1015.9
20260831203603 58 349 2.0 3.0 0.00 0.01 0.01 72 1015.1
20260831202703 59 45 2.0 2.0 0.00 0.01 0.01 71 1014.9
20260831201803 59 45 2.0 2.0 0.00 0.01 0.01 71 1014.9
20260831200903 59 342 2.0 2.0 0.00 0.01 0.01 71 1014.9
20260831200003 60 315 2.0 2.0 0.00 0.01 0.01 70 1014.5
20260831195618 60 315 2.0 2.0 0.00 0.01 0.01 70 1014.5
20260831194503 60 300 4.0 5.0 0.00 0.01 0.01 70 1014.8
20260831193603 60 317 4.0 5.0 0.00 0.01 0.01 70 1014.4
20260831192703 60 313 5.0 8.0 0.00 0.01 0.01 70 1014.6
20260831191803 61 268 3.0 4.0 0.00 0.01 0.01 70 1014.6
20260831190903 61 353 2.0 3.0 0.00 0.01 0.01 69 1014.2
20260831190003 61 332 4.0 4.0 0.00 0.12 0.01 68 1014.0
20260831185403 62 317 5.0 6.0 0.00 0.14 0.01 67 1014.2
20260831184503 62 300 6.0 7.0 0.00 0.14 0.01 65 1014.0
20260831183603 62 306 5.0 7.0 0.00 0.14 0.01 65 1014.1
20260831182703 63 330 3.0 4.0 0.00 0.14 0.01 64 1013.8
20260831181803 64 289 4.0 7.0 0.00 0.14 0.01 59 1013.8
20260831180903 64 329 6.0 8.0 0.00 0.14 0.01 58 1014.0
20260831180003 65 328 7.0 9.0 0.00 0.14 0.01 55 1013.7
20260831175617 65 321 6.0 8.0 0.00 0.14 0.01 54 1013.5
20260831174503 66 315 5.0 8.0 0.00 0.14 0.01 54 1013.6
20260831173603 65 329 6.0 9.0 0.00 0.14 0.01 53 1013.7
20260831172703 65 291 7.0 11.0 0.00 0.14 0.01 53 1013.6
20260831171803 65 301 7.0 11.0 0.00 0.14 0.01 52 1013.5
20260831171118 65 307 9.0 11.0 0.00 0.14 0.01 52 1013.1
20260831170218 66 321 9.0 12.0 0.00 0.14 0.01 50 1013.3
20260831165403 67 301 10.0 14.0 0.00 0.14 0.01 50 1013.5
20260831164503 67 296 10.0 15.0 0.00 0.14 0.01 51 1013.3
20260831163603 67 304 9.0 12.0 0.00 0.14 0.01 51 1013.3
20260831162703 68 327 9.0 13.0 0.00 0.14 0.01 53 1013.1
20260831161803 67 305 10.0 11.0 0.00 0.14 0.01 54 1013.1
20260831160903 67 328 9.0 11.0 0.00 0.14 0.01 52 1012.9
20260831160003 67 319 10.0 12.0 0.00 0.14 0.01 52 1012.9
20260831155403 67 314 9.0 11.0 0.00 0.14 0.01 51 1012.9
20260831154503 68 320 10.0 13.0 0.00 0.14 0.01 51 1012.6
20260831153603 68 279 11.0 15.0 0.00 0.14 0.01 50 1012.6
20260831152703 69 327 12.0 15.0 0.00 0.14 0.01 50 1012.4
20260831151803 69 283 9.0 13.0 0.00 0.14 0.01 51 1012.6
20260831150903 69 296 10.0 16.0 0.00 0.14 0.01 50 1012.3
20260831150003 69 312 9.0 12.0 0.00 0.14 0.01 51 1012.3
20260831145403 69 327 10.0 15.0 0.00 0.14 0.01 52 1012.2
20260831144503 69 311 10.0 11.0 0.00 0.14 0.01 56 1012.2
20260831143603 68 300 10.0 15.0 0.00 0.14 0.01 58 1011.9
20260831142703 68 327 9.0 15.0 0.00 0.14 0.01 61 1012.0
20260831141803 67 306 8.0 13.0 0.00 0.14 0.01 65 1011.9
20260831140903 67 301 10.0 14.0 0.00 0.14 0.01 66 1012.0
20260831140003 66 331 8.0 14.0 0.00 0.14 0.01 67 1012.0
20260831135403 65 323 10.0 14.0 0.00 0.14 0.01 64 1012.0
20260831134717 67 294 8.0 11.0 0.00 0.15 0.01 61 1012.2
20260831133603 70 319 7.0 9.0 0.00 0.15 0.01 59 1011.6
20260831132703 68 334 8.0 11.0 0.00 0.15 0.01 58 1011.6
20260831132017 68 315 8.0 11.0 0.00 0.15 0.01 57 1011.6
20260831130903 68 339 9.0 14.0 0.00 0.15 0.01 56 1011.6
20260831130003 69 319 9.0 11.0 0.00 0.15 0.01 55 1011.4
20260831125403 69 322 8.0 11.0 0.00 0.15 0.01 55 1011.2
20260831124503 69 357 7.0 8.0 0.00 0.15 0.01 59 1010.9
20260831123816 69 342 8.0 12.0 0.00 0.15 0.01 60 1011.0
20260831122703 69 330 10.0 15.0 0.00 0.15 0.01 57 1011.0
20260831121803 70 311 10.0 14.0 0.00 0.15 0.01 54 1010.6
20260831120903 70 312 7.0 10.0 0.00 0.15 0.01 60 1010.5
20260831120003 68 323 7.0 10.0 0.00 0.15 0.01 62 1010.5
20260831115403 69 315 9.0 11.0 0.00 0.15 0.01 62 1010.5
20260831114503 69 327 9.0 11.0 0.00 0.15 0.01 61 1010.4
20260831113603 70 320 7.0 12.0 0.00 0.15 0.01 60 1010.3
20260831112703 69 320 10.0 14.0 0.00 0.15 0.01 62 1010.0
20260831111803 69 323 8.0 11.0 0.00 0.17 0.01 61 1010.1
20260831110903 69 293 9.0 11.0 0.00 0.17 0.01 61 1009.8
20260831110003 68 310 10.0 12.0 0.00 0.22 0.01 62 1009.8
20260831105403 69 343 10.0 14.0 0.00 0.22 0.01 61 1009.6
20260831104503 69 326 8.0 11.0 0.00 0.22 0.01 63 1009.4